Weather History for Madison, MN

Change the Weather History Date:

Wednesday, November 21, 2012

  Actual Average (KAQP) Record (KAQP)
Temperature  
Mean Temperature 48 °F -  
Max Temperature 64 °F 34 °F 62 °F (2012)
Min Temperature 33 °F 18 °F -4 °F (1996)
Degree Days  
Heating Degree Days 16    
Moisture  
Dew Point 32 °F    
Average Humidity 53    
Maximum Humidity 81    
Minimum Humidity 30    
Precipitation  
Precipitation 0.00 in - - ()
Sea Level Pressure  
Sea Level Pressure 29.78 in    
Wind  
Wind Speed 10 mph (South)    
Max Wind Speed 18 mph    
Max Gust Speed 21 mph    
Visibility 10 miles    
Events      
Averages and records for this station are not official NWS values.
T = Trace of Precipitation, MM = Missing Value Source: NWS Daily Summary

Daily Weather History Graph

Daily Weather History Graph

Search for Another Location

Airport:

Trip Planner

Search our weather history database for the weather conditions in past years. The results will help you decide how hot, cold, wet, or windy it might be!

Date:

Astronomy

Nov. 21, 2012 Rise Set
Actual Time 7:31 AM CST 4:50 PM CST
Civil Twilight 6:58 AM CST 5:22 PM CST
Nautical Twilight 6:22 AM CST 5:58 PM CST
Astronomical Twilight 5:47 AM CST 6:33 PM CST
Moon 1:21 PM CST (11/21) 12:34 AM CST (11/21)
Length of Visible Light 10h 23m
Length of Day
9h 19m
First Quarter, 62% of the Moon is Illuminated
Nov 21
First Quarter
Nov 28
Full
Dec 6
Last Quarter
Dec 13
New
Dec 19
First Quarter

Hourly Weather History & Observations

Time (CST) Temp. Windchill Dew Point Humidity Pressure Visibility Wind Dir Wind Speed Gust Speed Precip Events Conditions
12:14 AM 50.0 °F - 32.0 °F 50% 29.90 in 10.0 mi SW 16.1 mph - N/A   Clear
12:33 AM 48.2 °F - 32.0 °F 54% 29.90 in 10.0 mi SW 15.0 mph - N/A   Clear
12:54 AM 48.2 °F - 32.0 °F 54% 29.89 in 10.0 mi SSW 15.0 mph - N/A   Clear
1:14 AM 46.4 °F 41.5 °F 32.0 °F 57% 29.90 in 10.0 mi SW 10.4 mph - N/A   Clear
1:33 AM 46.4 °F 41.5 °F 32.0 °F 57% 29.90 in 10.0 mi SW 10.4 mph - N/A   Clear
1:54 AM 46.4 °F 40.7 °F 32.0 °F 57% 29.90 in 10.0 mi SW 12.7 mph - N/A   Clear
2:14 AM 44.6 °F 39.2 °F 32.0 °F 61% 29.91 in 10.0 mi SW 10.4 mph - N/A   Clear
2:33 AM 46.4 °F 42.4 °F 32.0 °F 57% 29.91 in 10.0 mi WSW 8.1 mph - N/A   Clear
2:54 AM 42.8 °F 38.6 °F 32.0 °F 66% 29.91 in 10.0 mi WSW 6.9 mph - N/A   Clear
3:14 AM 42.8 °F 39.3 °F 32.0 °F 66% 29.91 in 10.0 mi WSW 5.8 mph - N/A   Clear
3:33 AM 42.8 °F 39.3 °F 30.2 °F 61% 29.90 in 10.0 mi WSW 5.8 mph - N/A   Clear
3:54 AM 42.8 °F 39.3 °F 30.2 °F 61% 29.90 in 10.0 mi WSW 5.8 mph - N/A   Clear
4:14 AM 42.8 °F 41.1 °F 30.2 °F 61% 29.90 in 10.0 mi WSW 3.5 mph - N/A   Clear
4:33 AM 39.2 °F 37.0 °F 30.2 °F 70% 29.91 in 10.0 mi WNW 3.5 mph - N/A   Clear
4:54 AM 39.2 °F - 30.2 °F 70% 29.91 in 10.0 mi Calm Calm - N/A   Clear
5:14 AM 37.4 °F - 30.2 °F 75% 29.91 in 10.0 mi Calm Calm - N/A   Clear
5:33 AM 39.2 °F - 30.2 °F 70% 29.91 in 10.0 mi Calm Calm - N/A   Clear
5:54 AM 37.4 °F - 30.2 °F 75% 29.91 in 10.0 mi Calm Calm - N/A   Clear
6:14 AM 35.6 °F - 30.2 °F 81% 29.91 in 10.0 mi Calm Calm - N/A   Clear
6:33 AM 33.8 °F 28.6 °F 28.4 °F 81% 29.91 in 10.0 mi South 5.8 mph - N/A   Clear
6:54 AM 35.6 °F 29.2 °F 30.2 °F 81% 29.91 in 10.0 mi SSW 8.1 mph - N/A   Clear
7:14 AM 35.6 °F - 30.2 °F 81% 29.90 in 10.0 mi Calm Calm - N/A   Clear
7:33 AM 33.8 °F 28.6 °F 28.4 °F 81% 29.90 in 10.0 mi South 5.8 mph - N/A   Clear
7:54 AM 33.8 °F 28.6 °F 28.4 °F 81% 29.90 in 10.0 mi South 5.8 mph - N/A   Clear
8:14 AM 33.8 °F 29.6 °F 28.4 °F 81% 29.91 in 10.0 mi SSW 4.6 mph - N/A   Clear
8:34 AM 35.6 °F 30.7 °F 30.2 °F 81% 29.90 in 10.0 mi SSE 5.8 mph - N/A   Clear
8:54 AM 41.0 °F 38.0 °F 33.8 °F 76% 29.89 in 10.0 mi South 4.6 mph - N/A   Clear
9:13 AM 42.8 °F 40.1 °F 33.8 °F 70% 29.89 in 10.0 mi SSW 4.6 mph - N/A   Clear
9:34 AM 44.6 °F 42.2 °F 33.8 °F 66% 29.89 in 10.0 mi South 4.6 mph - N/A   Clear
9:54 AM 48.2 °F - 33.8 °F 58% 29.88 in 10.0 mi South 5.8 mph - N/A   Clear
10:13 AM 48.2 °F - 33.8 °F 58% 29.87 in 10.0 mi South 5.8 mph - N/A   Clear
10:34 AM 50.0 °F - 33.8 °F 54% 29.86 in 10.0 mi South 6.9 mph - N/A   Clear
10:54 AM 51.8 °F - 33.8 °F 50% 29.85 in 10.0 mi South 6.9 mph - N/A   Clear
11:13 AM 51.8 °F - 33.8 °F 50% 29.85 in 10.0 mi South 9.2 mph - N/A   Clear
11:34 AM 55.4 °F - 35.6 °F 47% 29.83 in 10.0 mi South 9.2 mph - N/A   Clear
11:54 AM 57.2 °F - 35.6 °F 44% 29.83 in 10.0 mi SSE 8.1 mph - N/A   Clear
12:13 PM 59.0 °F - 35.6 °F 42% 29.81 in 10.0 mi SE 9.2 mph - N/A   Clear
12:34 PM 60.8 °F - 35.6 °F 39% 29.79 in 10.0 mi SE 15.0 mph - N/A   Clear
12:54 PM 62.6 °F - 33.8 °F 34% 29.78 in 10.0 mi SSE 13.8 mph 18.4 mph N/A   Clear
1:14 PM 64.4 °F - 32.0 °F 30% 29.78 in 10.0 mi South 16.1 mph - N/A   Clear
1:34 PM 62.6 °F - 32.0 °F 32% 29.76 in 10.0 mi South 10.4 mph - N/A   Clear
1:54 PM 62.6 °F - 30.2 °F 30% 29.75 in 10.0 mi South 11.5 mph - N/A   Clear
2:13 PM 62.6 °F - 32.0 °F 32% 29.75 in 10.0 mi SSE 9.2 mph - N/A   Clear
2:34 PM 60.8 °F - 33.8 °F 36% 29.74 in 10.0 mi SE 10.4 mph - N/A   Clear
2:54 PM 60.8 °F - 33.8 °F 36% 29.73 in 10.0 mi SE 12.7 mph - N/A   Clear
3:13 PM 60.8 °F - 33.8 °F 36% 29.71 in 10.0 mi SE 9.2 mph - N/A   Clear
3:34 PM 62.6 °F - 33.8 °F 34% 29.70 in 10.0 mi SE 9.2 mph - N/A   Clear
3:58 PM 59.0 °F - 33.8 °F 39% 29.70 in 10.0 mi SE 9.2 mph - N/A   Clear
4:13 PM 57.2 °F - 33.8 °F 41% 29.70 in 10.0 mi SSE 9.2 mph - N/A   Clear
4:34 PM 55.4 °F - 33.8 °F 44% 29.69 in 10.0 mi SSE 9.2 mph - N/A   Clear
4:54 PM 55.4 °F - 33.8 °F 44% 29.68 in 10.0 mi SSE 9.2 mph - N/A   Clear
5:13 PM 53.6 °F - 33.8 °F 47% 29.68 in 10.0 mi SSE 9.2 mph - N/A   Clear
5:34 PM 51.8 °F - 33.8 °F 50% 29.67 in 10.0 mi SSE 11.5 mph - N/A   Clear
5:54 PM 51.8 °F - 32.0 °F 47% 29.66 in 10.0 mi South 10.4 mph - N/A   Clear
6:13 PM 53.6 °F - 32.0 °F 44% 29.65 in 10.0 mi South 10.4 mph - N/A   Clear
6:34 PM 51.8 °F - 32.0 °F 47% 29.65 in 10.0 mi South 8.1 mph - N/A   Clear
6:54 PM 48.2 °F - 30.2 °F 50% 29.65 in 10.0 mi South 8.1 mph - N/A   Clear
7:13 PM 53.6 °F - 32.0 °F 44% 29.64 in 10.0 mi South 12.7 mph - N/A   Clear
7:34 PM 53.6 °F - 32.0 °F 44% 29.63 in 10.0 mi South 10.4 mph - N/A   Clear
7:54 PM 53.6 °F - 33.8 °F 47% 29.63 in 10.0 mi South 10.4 mph - N/A   Clear
8:13 PM 53.6 °F - 33.8 °F 47% 29.62 in 10.0 mi South 9.2 mph - N/A   Clear
8:34 PM 57.2 °F - 33.8 °F 41% 29.62 in 10.0 mi SSW 11.5 mph - N/A   Clear
8:53 PM 55.4 °F - 33.8 °F 44% 29.61 in 10.0 mi SSW 10.4 mph - N/A   Clear
9:14 PM 59.0 °F - 33.8 °F 39% 29.61 in 10.0 mi SW 13.8 mph - N/A   Clear
9:33 PM 60.8 °F - 33.8 °F 36% 29.60 in 10.0 mi SW 15.0 mph 20.7 mph N/A   Clear
9:54 PM 59.0 °F - 33.8 °F 39% 29.60 in 10.0 mi SW 15.0 mph - N/A   Clear
10:14 PM 59.0 °F - 33.8 °F 39% 29.59 in 10.0 mi SW 12.7 mph - N/A   Clear
10:33 PM 59.0 °F - 33.8 °F 39% 29.59 in 10.0 mi SW 12.7 mph 18.4 mph N/A   Clear
10:54 PM 57.2 °F - 33.8 °F 41% 29.59 in 10.0 mi SW 12.7 mph - N/A   Clear
11:14 PM 55.4 °F - 33.8 °F 44% 29.58 in 10.0 mi SW 13.8 mph - N/A   Clear
11:33 PM 53.6 °F - 33.8 °F 47% 29.58 in 10.0 mi SW 15.0 mph - N/A   Clear
11:54 PM 55.4 °F - 33.8 °F 44% 29.57 in 10.0 mi SW 18.4 mph - N/A   Clear